2025-013A (62729 NORAD) Tracking and Keplerian Element Data

This shows tracking and keplerian element data for the satellite.

Feedback or suggestion? Click here.




ElementValue
Catalog62729
Name2025-013A
Epoch Orbit222
Epoch Day35.18261735
Epoch Year2025
RAAN202.1648
Inclination97.6107
Eccentricity0.0013542
Argument of Perigee234.3382
Mean Anonmoly125.6587
Mean Motion15.09997564
Decay Rate0.00025018
L11 62729U 25013A 25035.18261735 .00025018 00000+0 15365-2 0 9992
L22 62729 97.6107 202.1648 0013542 234.3382 125.6587 15.09997564 2226



Live tracking and technical data element details for 2025-013A (NORAD 62729). 2025-013A can be tracked NOW for your location showing map with azimuth and elevation plus other details from your city location.







IsCatalogInMostPopularTable: catalog: 62729, numindb: 3
Update: records affected: 1



GetName: 62729 2025-013A

Hit Count: updated at: Sun, 09 Feb 2025 15:18:48 GMT